Location: Albany
(35.0000°S, 118.0000°E)
Time: 12:25:24
(UTC-05:00)

JAS-1B - Visible Passes

Search period start: 28 February 2015 00:00
Search period end: 10 March 2015 01:00
Orbit: 911 x 1744 km, 99.1° (Epoch: 27 February)

Date Brightness Start Highest point End Pass type
(mag) Time Alt. Az. Time Alt. Az. Time Alt. Az.
28 Feb 8.8 10:14:00 34° SSE 10:14:00 34° SSE 10:18:54 10° S visible
28 Feb 9.5 12:06:15 17° SW 12:06:15 17° SW 12:08:32 10° SW visible
01 Mar 9.6 08:41:08 12° SE 08:41:08 12° SE 08:43:58 10° SSE visible
01 Mar 8.8 10:33:23 36° S 10:33:23 36° S 10:38:10 10° S visible
01 Mar 9.8 12:25:39 13° SW 12:25:39 13° SW 12:26:43 10° SW visible
02 Mar 9.4 09:00:31 17° SE 09:00:31 17° SE 09:04:41 10° SSE visible
02 Mar 8.9 10:52:47 35° SSW 10:52:47 35° SSW 10:57:19 10° SSW visible
03 Mar 9.2 09:19:56 22° SE 09:19:56 22° SE 09:24:39 10° S visible
03 Mar 9.1 11:12:11 31° SSW 11:12:11 31° SSW 11:16:21 10° SSW visible
04 Mar 9.1 09:39:20 27° SE 09:39:20 27° SE 09:44:18 10° S visible
04 Mar 9.3 11:31:36 26° SW 11:31:36 26° SW 11:35:14 10° SSW visible
05 Mar 9.0 09:58:45 32° SSE 09:58:45 32° SSE 10:03:47 10° S visible
05 Mar 9.5 11:51:01 21° SW 11:51:01 21° SW 11:53:57 10° SSW visible
06 Mar 9.8 08:25:54 10° SE 08:25:59 10° SE 08:27:40 10° SE visible
06 Mar 8.9 10:18:10 35° S 10:18:10 35° S 10:23:08 10° S visible
06 Mar 9.7 12:10:26 16° SW 12:10:26 16° SW 12:12:25 10° SW visible
07 Mar 9.6 08:45:20 15° SE 08:45:20 15° SE 08:49:13 10° SSE visible
07 Mar 9.0 10:37:35 35° S 10:37:35 35° S 10:42:21 10° S visible
07 Mar 9.9 12:29:51 11° SW 12:29:51 11° SW 12:30:28 10° SW visible
08 Mar 9.4 10:04:45 20° SE 10:04:45 20° SE 10:09:21 10° SSE visible
08 Mar 9.1 11:57:01 33° SSW 11:57:01 33° SSW 12:01:28 10° SSW visible
09 Mar 9.3 10:24:11 25° SE 10:24:11 25° SE 10:29:08 10° S visible
09 Mar 9.3 12:16:27 28° SSW 12:16:27 28° SSW 12:20:27 10° SSW visible
